RH
11 12 12 12 13 14 15 16 17 18 19 19 19 18 19 19 18 20 23 24 22 18 18 24 25 24 30 36 38 44 48 50 55 61 63 62 63 64 63 62 64 68 74 79 85 91 98 103 104 102 101 102 102 101 101 101 100 99 98 97 98 99 97 96 94 90 90 90 89 84 80 80 79 78 76 75 78 80 79 78 76 73 71 69 69 66
11 11 11 12 14 14 15 16 16 17 18 18 18 16 17 17 15 15 20 21 22 20 19 23 23 23 31 34 34 40 43 46 53 57 56 55 58 60 62 66 72 76 79 82 87 93 99 103 103 103 101 100 99 99 98 98 97 96 97 97 96 97 96 95 91 90 93 90 83 81 85 92 95 94 89 78 70 65 61 61 62 62 61 61 59 56
11 11 11 12 13 13 14 14 14 15 16 17 15 14 15 16 13 12 17 19 21 21 19 23 23 22 29 31 32 37 38 43 49 51 51 53 59 65 68 72 75 79 81 85 90 94 97 98 99 99 98 99 99 97 95 95 93 93 97 98 97 99 99 96 93 97 101 97 95 98 100 98 91 82 73 63 57 52 47 45 47 48 47 47 45 44
11 11 11 12 12 12 13 12 12 13 16 17 14 14 14 16 16 14 15 15 18 22 22 24 23 20 26 28 31 36 38 44 48 48 50 55 62 67 71 75 78 82 85 88 91 93 95 95 94 96 98 100 98 94 95 96 96 97 99 98 98 101 101 98 98 101 102 99 99 98 90 81 71 62 61 61 59 52 43 38 38 40 41 42 42 40
11 10 11 12 12 12 12 12 12 12 14 17 16 15 15 16 18 17 17 15 16 21 24 28 25 18 23 29 32 37 41 44 47 48 52 58 64 69 75 79 82 85 88 91 93 96 97 96 97 98 97 95 91 90 95 98 99 99 99 97 98 100 100 101 101 98 92 88 89 86 81 77 67 56 54 57 54 45 38 35 34 35 35 35 36 35
10 11 11 13 12 13 13 12 13 13 14 16 16 17 17 17 17 18 21 19 17 20 24 33 32 20 22 30 35 39 42 45 47 50 56 61 66 72 76 78 82 85 88 90 91 95 98 98 98 98 94 90 91 94 98 101 101 100 99 99 100 102 104 106 102 94 90 91 92 87 78 71 61 54 54 56 53 45 40 36 31 26 22 21 21 22
11 12 13 14 14 15 15 14 15 15 15 15 15 16 17 17 18 19 24 26 24 21 26 38 38 27 24 30 37 43 46 47 51 55 59 62 66 69 72 74 78 80 83 86 87 91 97 99 99 99 97 96 99 101 101 102 103 102 101 100 102 105 107 105 100 97 98 98 95 88 82 77 73 70 67 63 61 55 45 33 20 12 9 9 8 9
13 14 14 15 15 16 17 16 16 16 15 15 15 16 17 18 19 22 26 30 27 22 26 36 37 32 29 35 44 48 50 53 56 60 61 63 66 67 70 73 75 80 87 93 95 98 102 102 102 102 101 101 103 103 101 101 101 101 101 101 103 106 105 103 100 99 100 99 97 95 93 90 86 81 74 66 58 45 30 16 9 8 7 7 7 6
14 15 15 15 16 16 16 16 17 16 15 15 15 16 18 18 20 23 26 30 27 23 28 34 38 39 34 40 52 52 54 60 62 64 66 68 70 69 71 75 81 91 99 103 103 103 102 101 102 100 99 102 104 103 101 101 101 102 104 104 104 104 102 101 99 99 99 98 98 97 92 88 80 72 60 47 32 19 12 9 9 9 8 8 8 7
16 16 16 15 15 15 15 15 16 16 15 15 16 15 16 18 19 21 25 28 25 24 33 39 45 48 41 44 55 56 60 67 69 72 74 74 73 73 78 85 93 100 102 102 101 101 101 102 104 102 99 100 100 101 101 102 103 102 102 101 100 99 98 99 98 98 97 94 92 86 75 65 52 38 27 18 12 10 10 9 9 9 8 8 8 8
16 16 16 14 14 13 14 15 16 16 16 17 17 14 14 16 17 19 25 29 27 28 37 44 50 56 52 49 54 59 66 73 77 79 79 77 77 81 88 95 100 102 101 102 101 100 101 101 102 101 100 102 102 103 103 103 103 100 99 98 98 97 96 95 90 84 76 67 57 46 35 26 19 14 12 11 11 11 9 9 9 9 9 8 8 8
15 15 15 14 14 13 13 15 15 16 17 17 17 15 15 15 15 19 25 30 32 32 39 48 53 57 58 56 60 65 70 75 79 79 78 78 81 89 97 100 102 102 102 103 102 101 101 101 102 104 104 102 100 98 97 96 96 96 94 91 85 77 68 60 50 41 33 26 21 17 15 15 14 14 13 12 11 10 9 9 9 9 9 9 10 10
15 14 14 14 14 14 13 14 14 15 17 17 18 20 21 22 22 25 31 33 33 33 41 54 57 56 60 63 67 72 76 77 75 73 74 80 87 96 102 101 100 101 101 103 102 100 100 99 98 97 97 94 94 95 92 88 82 73 63 52 41 33 26 22 19 17 16 16 17 17 16 16 15 14 13 12 11 10 10 10 10 11 11 10 11 11
14 14 15 15 15 15 14 14 15 15 17 18 22 26 32 39 39 38 40 43 39 34 42 55 59 58 61 65 72 78 79 75 72 74 79 86 96 100 101 101 101 101 101 100 99 98 98 100 98 96 96 92 86 77 64 51 39 29 23 19 18 17 17 18 19 19 20 20 19 19 18 18 16 15 13 12 11 11 12 12 12 11 11 12 12 12
15 14 15 16 16 16 16 16 17 18 19 22 26 31 39 49 50 46 48 54 50 41 44 54 58 60 63 67 75 78 74 72 74 79 86 95 102 102 101 100 99 99 100 100 102 102 101 98 89 77 66 53 39 29 21 16 15 16 18 20 21 21 21 22 22 22 22 21 21 20 19 17 16 14 13 13 13 13 13 12 13 13 13 13 12 12
17 17 17 17 17 17 17 18 19 20 22 24 28 34 40 47 49 45 45 53 55 46 45 52 55 59 65 69 73 74 70 71 75 80 90 98 99 98 100 102 103 103 101 96 89 78 65 51 39 28 20 15 13 13 14 16 19 22 23 24 24 23 23 24 24 23 22 22 21 19 18 17 16 15 15 15 14 14 14 14 14 13 12 15 20 29
18 19 18 18 18 18 18 20 21 23 25 27 30 34 37 43 50 49 45 50 55 48 45 52 57 60 67 72 74 73 68 70 80 88 95 101 102 102 102 98 89 79 66 54 41 29 20 15 13 13 13 15 17 18 19 22 23 24 25 25 25 24 25 25 24 23 22 21 20 19 18 17 16 17 16 16 15 15 15 13 13 17 27 40 54 67
17 19 19 18 18 19 19 22 24 26 28 30 32 35 36 40 49 57 59 59 61 57 49 52 59 62 70 80 76 66 66 77 90 97 101 104 99 85 69 53 39 29 21 16 13 11 12 14 15 17 18 20 22 23 25 25 26 27 27 26 26 25 25 24 24 23 21 21 21 19 19 19 19 19 18 17 16 14 14 19 31 46 61 74 82 90
16 18 19 19 19 20 21 23 25 27 30 32 34 38 43 47 52 60 69 72 74 71 59 50 53 60 73 79 68 61 72 82 85 88 86 75 56 36 23 16 12 11 11 11 13 15 17 18 20 22 24 25 26 27 28 28 29 31 30 31 30 27 26 26 24 23 23 24 23 21 21 21 19 18 18 17 15 18 30 48 65 76 83 88 90 93
17 17 19 20 20 21 22 23 26 28 29 32 36 39 44 50 55 58 68 76 76 75 73 59 48 57 70 67 57 60 70 69 63 57 46 29 18 14 13 12 11 11 12 14 17 20 22 24 26 27 28 29 30 31 33 36 38 39 38 35 31 28 28 27 25 26 27 25 24 23 22 21 21 19 17 17 27 46 67 80 86 88 90 95 96 98
18 18 18 20 22 21 23 25 27 28 31 34 38 42 45 50 53 54 59 67 68 71 82 73 51 52 63 57 54 57 53 45 38 29 19 13 13 14 12 12 13 14 16 19 21 23 25 27 28 29 29 30 31 33 36 39 41 41 39 33 29 27 26 25 26 28 27 26 25 23 22 21 20 17 20 38 64 83 89 91 94 96 99 103 104 104
17 18 18 20 22 22 25 27 28 30 34 38 41 44 49 54 58 59 56 58 62 66 75 72 53 51 58 52 48 44 32 26 22 15 13 13 12 11 12 13 14 16 19 21 23 25 26 27 26 25 25 25 27 29 31 34 35 33 31 28 26 25 24 26 28 27 27 26 24 22 22 19 18 27 50 79 96 96 93 96 102 104 103 104 103 103
18 19 18 19 22 24 25 26 27 29 33 39 44 46 50 56 62 67 66 63 62 60 62 61 51 50 54 47 38 30 21 17 14 11 11 10 9 12 13 13 15 19 22 23 24 24 22 21 20 19 20 21 22 24 26 28 28 29 29 28 25 24 25 28 28 27 27 24 23 23 19 17 32 62 89 102 101 97 99 104 105 102 101 101 101 102
20 20 18 18 20 21 22 22 23 28 34 40 46 48 51 56 60 65 67 64 61 58 58 58 49 46 49 42 32 24 16 12 10 9 10 9 11 13 13 16 20 22 23 23 21 18 16 15 16 17 18 19 21 24 26 29 32 33 31 28 25 25 27 28 28 27 25 24 23 19 18 36 69 95 104 102 99 99 103 104 102 101 100 100 101 102
23 24 23 20 20 19 19 21 21 26 34 44 51 52 53 55 57 58 58 57 55 54 58 59 51 45 44 37 26 18 12 9 8 8 10 11 12 14 16 19 22 23 22 20 17 15 14 15 17 19 21 23 26 27 28 32 34 33 30 28 27 27 28 28 26 25 25 23 19 19 39 74 98 103 103 102 98 98 101 102 101 100 100 101 101 100
25 27 28 27 28 29 30 31 29 29 34 43 51 54 54 55 57 58 56 54 52 49 53 60 56 46 41 33 22 14 9 8 8 8 9 11 13 15 18 21 23 22 18 15 14 15 17 19 21 23 25 26 27 27 29 32 32 29 28 28 28 28 27 26 24 25 23 18 21 43 77 100 101 99 102 102 97 97 101 101 100 100 100 100 100 100
25 28 30 31 32 36 39 38 36 35 37 41 46 51 53 55 59 62 58 54 52 47 46 54 56 46 37 30 19 12 8 7 7 9 9 11 13 16 20 22 20 17 14 13 15 16 19 21 23 24 25 25 25 25 27 29 27 26 26 27 28 28 26 23 23 22 18 22 48 81 100 101 96 97 101 100 98 100 102 101 100 102 101 100 101 101
26 26 30 33 34 36 39 38 36 38 40 40 44 49 52 55 59 61 57 53 53 52 48 50 52 45 36 28 18 11 8 7 8 9 10 11 14 17 19 18 14 11 12 13 14 16 18 19 20 21 21 20 21 22 24 25 25 24 25 26 26 24 23 23 20 18 25 52 85 101 101 96 93 95 101 102 100 98 99 100 101 104 105 104 103 101
26 26 28 31 34 35 38 38 35 35 39 41 44 48 52 56 58 57 55 54 56 60 57 52 50 44 36 27 17 10 8 8 8 8 9 10 13 15 15 12 9 10 11 12 13 14 14 15 15 16 16 18 19 21 22 22 22 23 25 24 23 22 22 19 18 30 58 88 102 100 96 93 90 94 102 104 100 98 98 99 102 107 109 105 103 102
26 27 26 29 33 34 36 37 34 33 37 41 43 45 51 56 57 56 55 55 57 59 57 52 48 43 35 26 17 10 7 7 7 7 7 9 13 14 12 9 8 9 11 12 12 12 12 13 13 13 14 16 17 18 19 20 21 22 22 21 21 20 17 19 37 67 94 104 100 96 95 90 88 97 104 102 100 99 98 98 101 106 108 106 105 105
27 26 26 27 31 32 33 35 34 34 38 39 40 44 49 52 55 56 57 57 56 54 52 49 45 40 34 26 17 10 7 7 7 7 7 10 13 14 11 8 8 9 10 11 12 12 12 11 11 12 14 15 16 18 18 18 19 19 19 19 18 17 25 46 75 96 103 100 97 97 95 90 92 99 102 100 99 99 99 100 101 103 106 107 106 105
27 27 26 26 28 31 32 33 33 34 35 35 37 41 45 49 55 61 62 61 59 54 49 46 42 38 34 27 18 11 7 6 7 8 8 10 12 13 10 7 8 9 10 11 11 11 11 11 11 12 13 14 16 16 16 17 17 17 17 17 20 33 58 84 98 97 94 94 96 96 95 96 97 98 100 102 101 99 101 102 103 104 104 105 105 102
28 28 27 26 28 29 31 33 33 31 30 33 39 41 44 50 59 65 65 62 59 55 51 47 43 39 35 27 19 12 7 6 8 8 8 11 12 11 8 7 8 10 10 11 11 11 11 11 11 12 13 14 14 15 15 15 14 15 19 28 45 69 91 101 97 91 89 90 92 94 97 99 99 97 100 103 103 102 103 103 105 105 104 104 104 99
29 30 29 30 29 29 31 32 29 28 32 40 44 46 49 56 61 65 65 61 57 54 51 47 43 39 35 28 20 13 8 6 6 7 8 11 12 10 7 7 8 10 10 10 11 11 11 11 11 11 12 12 12 13 13 14 16 24 40 59 78 91 96 94 91 90 90 89 90 92 92 92 92 91 91 95 99 102 103 104 105 104 103 104 102 98
30 30 31 32 32 32 33 31 31 38 44 46 47 49 54 58 58 58 61 60 57 55 51 47 43 39 35 29 22 16 10 6 5 6 7 9 11 9 7 7 9 11 11 11 11 11 11 11 11 11 12 12 13 15 17 22 32 48 65 80 89 92 91 90 90 90 89 89 88 87 84 82 83 83 82 86 91 94 99 103 105 103 103 105 105 104
32 32 32 35 34 33 35 39 43 47 45 42 46 51 54 58 59 59 61 62 61 58 53 48 43 39 34 29 24 19 13 7 5 5 5 7 9 9 6 7 10 12 12 13 14 14 13 14 15 15 17 18 21 25 31 40 52 65 76 83 87 90 89 88 88 88 85 83 83 81 80 78 78 79 80 79 81 86 93 98 101 103 105 107 107 105
36 35 34 37 38 36 37 39 39 39 40 43 49 52 54 62 69 69 66 65 64 59 54 49 43 39 35 30 25 21 15 10 6 4 4 5 8 8 7 7 10 13 14 16 18 19 19 19 21 23 25 28 32 38 45 53 61 68 74 79 82 83 82 84 86 84 79 79 80 80 80 80 80 82 83 81 82 85 87 89 96 104 106 105 104 103
38 38 39 41 42 42 43 42 38 39 45 51 54 56 59 63 66 66 66 67 63 58 54 50 44 39 36 32 26 21 17 12 7 4 4 5 7 9 7 6 10 15 17 19 22 24 25 26 26 28 32 36 41 46 51 56 60 65 70 75 77 76 78 82 83 79 76 77 78 77 78 80 81 83 86 89 90 87 83 87 97 103 102 101 100 94
40 40 41 43 43 45 48 52 54 53 54 57 59 62 64 64 62 60 60 61 60 57 54 51 46 41 38 34 28 21 16 12 7 4 5 5 8 9 7 6 10 16 20 22 25 27 29 31 32 33 36 40 44 47 51 53 57 62 67 71 74 74 77 81 80 76 75 75 75 76 79 80 80 85 92 96 96 92 91 95 101 102 101 95 83 67
41 41 41 43 46 48 49 54 60 62 63 64 63 60 60 63 65 64 60 58 59 59 56 52 48 43 39 36 30 22 14 10 7 5 5 5 7 9 8 5 8 15 21 24 27 30 32 34 36 37 39 42 45 46 49 52 56 62 67 71 74 75 78 80 78 76 74 73 74 78 82 84 84 88 95 101 103 103 102 103 102 99 92 77 58 46
40 40 42 44 46 50 51 53 58 63 65 66 66 63 59 56 58 64 66 64 62 60 57 54 49 44 40 36 32 25 17 11 8 5 5 5 5 7 8 6 6 13 21 25 27 32 35 36 39 42 43 45 48 50 52 55 59 63 68 71 74 77 80 80 80 79 75 72 75 80 85 89 89 90 96 104 106 105 104 103 99 90 75 57 46 48
38 40 43 44 47 51 54 54 53 56 60 64 66 66 62 56 57 64 69 69 65 61 59 55 50 45 41 36 32 28 20 14 10 6 4 4 4 5 7 7 5 9 19 25 27 31 35 38 40 44 47 49 52 55 58 62 66 69 73 75 76 78 80 81 82 82 77 74 78 82 87 92 92 90 95 103 103 102 101 98 89 74 57 49 54 68
40 42 45 47 48 51 56 59 60 64 69 70 67 64 63 62 64 68 69 69 67 63 59 56 52 47 42 37 33 29 23 18 13 8 5 4 4 4 6 7 6 6 14 24 28 30 34 38 41 45 49 52 55 59 62 66 71 74 78 83 85 84 83 83 84 84 80 77 80 82 84 92 95 92 92 95 96 97 96 87 73 59 51 59 78 93
45 49 51 54 56 57 61 69 75 78 79 77 74 72 71 69 70 72 72 70 68 64 61 58 54 49 44 39 34 29 26 21 15 10 7 4 3 4 5 7 7 5 8 18 28 31 33 37 43 49 54 58 62 65 68 70 74 76 79 86 93 96 94 92 90 87 82 79 82 82 83 89 95 94 91 90 89 88 84 73 62 59 69 86 100 104
48 52 54 56 60 64 67 70 73 76 77 78 76 74 74 73 72 71 71 71 70 67 63 59 56 51 46 41 35 30 27 23 18 13 8 5 4 4 4 5 7 6 5 11 23 31 35 39 45 52 59 65 69 74 80 83 85 85 85 88 95 101 103 101 98 94 86 82 83 84 82 85 93 96 93 88 82 77 73 67 66 75 92 103 105 103
48 51 54 54 55 59 65 70 72 75 77 78 76 74 74 73 70 67 67 69 70 69 66 61 58 54 48 43 37 32 27 24 21 16 11 6 4 3 4 5 6 6 5 6 15 26 34 38 44 50 56 62 68 77 86 92 96 98 98 98 100 104 104 103 103 99 90 84 86 87 82 83 92 96 90 80 72 69 70 74 82 93 101 103 102 101
46 50 54 55 53 55 62 70 75 77 78 79 79 77 74 72 69 66 66 67 70 71 69 64 59 56 51 45 39 33 29 25 22 18 13 9 5 3 3 4 5 6 6 5 8 19 29 35 39 44 49 56 65 74 82 92 100 102 101 102 105 105 104 103 104 103 95 86 88 90 84 82 91 93 81 72 71 73 76 83 93 99 102 103 101 95
46 49 52 54 55 55 59 66 72 76 78 80 81 78 74 72 70 68 67 68 72 73 71 66 61 57 53 48 42 35 30 26 23 20 16 11 6 4 3 3 4 5 6 5 5 12 23 31 35 40 46 54 65 77 84 88 92 91 89 90 92 97 101 100 98 101 98 88 89 93 86 82 90 88 73 68 75 78 79 85 91 95 99 99 93 86
45 49 51 54 55 54 55 59 66 70 73 76 79 78 76 73 70 68 69 71 73 73 71 68 64 60 55 51 45 38 32 27 24 21 18 13 9 5 3 3 4 4 6 6 5 8 18 28 33 38 43 51 65 77 77 71 70 72 72 73 74 79 88 91 93 100 100 91 90 94 87 82 90 85 69 66 76 78 80 86 90 92 95 93 90 92
46 50 53 54 55 55 56 59 64 69 71 75 79 82 80 76 71 69 69 70 70 69 69 68 66 62 58 53 48 42 35 29 25 22 20 16 11 7 4 3 3 3 5 6 5 6 12 23 32 35 40 51 65 67 59 55 60 65 67 68 68 67 71 77 86 94 95 91 94 96 87 83 89 82 65 66 76 78 78 85 88 89 91 91 91 95
48 51 54 56 57 58 59 60 64 69 73 77 82 85 84 80 74 70 69 68 65 64 66 68 67 63 60 56 51 46 38 31 26 23 21 18 13 9 5 4 3 3 4 5 5 5 8 18 29 34 39 52 60 55 48 51 60 66 66 63 59 57 59 66 76 85 90 96 101 96 85 82 87 79 64 65 73 72 72 78 80 77 76 74 74 76
Wind_Speed
34 35 36 37 38 39 40 41 42 42 44 45 47 49 50 52 52 49 49 49 52 57 57 54 56 53 49 47 49 52 54 55 55 55 55 56 59 60 61 63 64 64 64 64 64 63 62 60 59 59 59 60 62 63 65 66 67 69 71 73 76 80 83 85 86 88 89 90 91 93 94 96 96 95 93 92 92 94 96 98 99 101 102 103 102 100
36 36 37 38 39 41 42 43 44 45 46 48 50 53 53 54 56 54 53 53 54 57 57 56 58 56 50 50 51 52 54 55 55 55 56 58 59 61 62 63 63 64 65 66 66 66 65 64 62 61 61 63 64 66 68 69 70 70 72 73 75 79 82 83 85 87 87 88 90 91 92 93 94 94 96 98 99 99 98 97 98 100 101 102 102 102
37 37 39 40 42 44 45 46 47 48 49 51 53 55 55 56 58 56 55 56 56 56 57 57 59 58 53 53 55 55 56 56 56 56 58 59 60 62 62 63 64 65 67 68 68 68 67 67 67 66 67 68 70 71 72 71 70 69 69 71 74 78 81 83 85 86 87 88 90 92 94 97 99 101 102 103 102 100 99 98 99 100 101 102 103 104
39 40 41 43 45 46 47 49 50 50 51 52 55 56 57 57 59 59 57 58 58 57 58 57 59 60 57 57 58 57 56 55 56 57 59 60 61 62 63 64 66 67 68 69 69 70 70 70 70 69 69 71 73 73 71 70 69 69 71 74 78 81 83 84 84 86 89 91 94 96 100 102 104 104 103 102 102 103 104 104 104 105 106 106 107 108
41 43 44 45 47 47 49 50 51 52 52 52 55 56 57 58 59 60 59 59 58 57 57 58 60 60 58 59 58 56 56 55 57 59 60 62 62 64 65 66 67 68 69 70 70 70 69 67 67 68 70 71 71 70 69 70 72 73 76 79 81 82 83 86 90 94 97 98 100 102 103 105 106 106 105 105 107 108 109 110 110 110 110 110 111 112
44 45 46 47 48 49 50 51 52 53 53 54 55 56 58 59 60 60 59 59 60 59 58 57 62 63 60 59 59 57 57 58 59 61 62 63 64 65 66 67 68 69 70 70 68 66 66 67 68 69 69 68 68 69 71 74 76 77 80 82 83 84 87 93 97 100 101 102 104 106 107 109 110 110 110 111 112 113 115 116 115 112 110 109 110 111
45 46 48 49 50 51 52 53 53 54 55 56 57 58 60 61 62 62 59 58 60 62 60 56 62 67 63 59 59 57 58 60 61 62 62 64 65 66 68 69 70 71 71 71 69 67 66 67 68 67 66 66 68 71 73 75 77 79 82 83 85 88 93 97 99 101 103 104 106 109 110 111 112 112 112 114 117 120 121 118 112 106 103 102 102 102
46 48 50 51 53 53 53 54 55 56 58 59 60 61 62 63 64 63 60 58 60 63 60 56 61 66 65 60 57 57 59 61 62 63 64 65 67 68 70 70 71 72 72 70 68 66 63 62 64 65 66 68 71 73 75 77 80 83 86 88 90 93 96 98 100 102 105 107 109 111 111 112 113 115 117 120 121 121 116 108 101 97 95 94 94 94
48 50 52 54 55 56 56 57 57 58 60 61 63 64 65 66 66 64 61 59 61 63 60 58 59 62 65 61 57 59 60 62 63 64 65 67 69 70 71 72 72 71 68 64 62 61 60 62 65 67 69 72 75 77 79 82 85 88 90 92 94 96 97 99 102 105 107 109 111 113 115 116 118 119 120 118 114 107 101 96 93 92 91 89 89 88
50 52 54 56 58 58 58 59 59 60 62 63 65 66 67 67 67 66 63 61 62 63 60 59 58 60 63 61 58 62 62 62 64 65 67 69 70 71 72 72 69 64 60 58 58 59 62 65 68 71 73 76 78 80 83 86 90 93 95 97 98 100 102 105 108 110 112 114 116 117 117 117 115 112 107 102 98 94 92 90 88 87 85 84 83 82
51 53 55 58 59 59 60 60 61 62 64 66 67 69 69 68 67 66 64 63 63 63 61 60 58 60 64 63 61 63 63 63 65 67 69 70 70 72 71 65 59 56 57 58 59 62 66 69 72 75 77 79 82 86 91 95 98 100 102 103 105 107 109 111 113 114 114 113 111 109 106 103 99 96 93 92 90 89 88 85 83 81 79 77 75 74
52 54 56 58 59 60 60 60 62 63 65 68 70 72 72 71 71 69 66 66 66 66 64 61 60 61 64 66 65 64 64 64 66 68 70 71 73 71 65 57 54 57 59 61 63 66 71 75 77 80 82 87 92 97 101 103 105 106 107 108 109 108 108 107 105 103 100 98 95 93 92 90 90 89 89 89 88 86 83 79 75 73 71 68 66 66
51 53 55 58 60 61 61 61 62 64 66 70 72 74 75 76 77 75 71 71 72 72 67 62 63 65 66 67 67 67 67 68 69 70 71 73 71 63 57 55 56 58 62 66 70 74 78 83 85 88 92 97 101 103 105 106 106 105 104 102 99 96 94 92 90 89 87 87 86 87 87 87 87 87 87 86 83 80 76 71 67 65 63 60 59 58
51 53 54 58 60 62 63 64 65 67 69 72 74 75 75 75 76 77 75 74 76 76 70 65 67 69 69 70 69 69 70 71 72 72 74 70 62 57 56 58 61 65 70 76 80 83 86 90 92 95 98 100 101 101 100 98 95 92 89 87 85 85 85 84 85 85 85 85 85 85 85 85 84 84 82 80 77 72 67 63 60 58 55 53 52 51
52 54 56 59 61 62 64 66 68 71 72 74 75 76 74 71 72 76 75 73 78 80 75 70 71 72 73 73 71 71 73 73 74 74 72 64 57 59 62 66 71 75 79 83 85 88 91 94 96 96 96 95 93 91 88 85 83 82 82 82 82 83 83 84 84 85 85 85 85 84 83 82 80 77 74 71 68 64 59 55 53 51 48 46 45 43
51 55 57 60 63 64 65 67 69 71 73 74 75 75 74 71 70 74 75 71 75 81 78 73 74 75 74 73 72 74 76 76 76 75 69 61 61 67 72 76 80 83 85 88 90 91 93 92 91 89 87 86 84 82 81 80 80 81 82 82 83 84 83 84 84 84 84 83 82 80 78 76 72 69 65 62 59 55 52 49 47 43 40 38 35 33
51 54 57 60 62 64 65 67 69 71 73 75 75 75 76 74 71 73 75 73 74 80 81 77 77 78 76 75 75 77 79 78 78 75 70 68 72 77 80 83 85 86 88 89 89 88 87 85 84 82 82 82 82 81 81 81 81 82 82 83 84 83 82 82 82 81 80 77 75 73 70 66 63 60 57 54 50 48 46 43 39 34 30 27 25 24
51 53 56 59 61 63 65 66 68 71 73 74 76 77 77 77 75 72 73 75 75 80 83 81 80 81 78 77 79 80 81 80 79 77 76 77 79 81 82 83 84 85 85 83 83 82 81 80 80 80 81 81 82 82 82 82 82 82 82 82 82 81 79 78 77 75 72 69 66 63 60 57 55 53 50 47 44 41 37 32 27 23 21 21 21 22
52 53 55 59 61 63 65 66 68 71 73 75 77 78 78 77 77 74 72 74 75 79 83 84 83 82 78 78 81 83 82 81 81 80 80 81 82 82 82 82 81 81 80 79 79 79 80 80 80 80 81 82 82 82 82 81 80 79 78 78 77 76 73 72 70 66 62 59 57 54 52 50 48 46 43 40 36 31 26 22 19 19 19 20 21 22
53 54 55 59 62 64 65 67 69 72 75 77 78 78 78 77 77 76 72 71 75 78 80 86 88 83 79 81 83 83 83 83 83 83 83 83 83 83 82 81 80 80 79 79 79 80 81 81 81 82 82 82 81 80 78 77 75 74 74 73 72 70 67 65 61 57 53 50 48 48 46 44 41 39 36 31 26 21 18 17 17 18 18 19 20 21
54 55 56 58 60 64 66 68 72 75 78 79 80 80 79 77 77 78 76 73 76 78 78 84 90 86 81 84 84 83 84 84 84 84 84 84 83 82 81 80 80 79 78 78 78 79 80 81 82 81 80 79 77 74 73 71 70 69 69 68 66 63 60 57 52 48 45 43 42 42 40 37 35 32 27 21 17 16 16 16 17 17 17 17 17 17
55 56 57 58 61 64 68 71 75 78 80 80 81 81 80 78 78 79 80 78 78 78 77 82 89 88 84 85 84 83 84 84 84 84 83 82 81 79 78 76 76 75 74 75 76 78 80 80 80 79 76 74 71 68 66 64 63 63 62 61 59 56 53 49 45 41 40 39 38 36 34 32 27 22 17 15 14 15 15 15 15 15 14 13 13 13
55 56 57 59 61 64 67 71 74 77 79 79 80 81 80 79 78 77 79 81 80 80 80 84 88 89 85 84 84 84 84 82 81 81 80 79 77 75 75 74 73 72 73 76 78 79 79 78 76 73 71 68 65 62 60 59 58 58 57 56 54 50 47 43 39 37 36 35 33 31 29 24 18 14 13 13 14 14 13 12 12 11 10 9 10 11
54 56 58 58 59 61 64 68 71 74 77 78 78 80 81 80 79 78 79 81 83 84 84 86 90 90 85 84 85 84 83 81 79 78 78 77 76 75 75 73 73 75 77 79 80 79 77 73 70 67 64 61 59 57 56 55 54 54 53 51 48 44 40 37 35 34 33 31 29 26 22 15 11 11 12 13 12 11 10 10 9 9 8 8 8 9
55 57 59 61 62 64 66 69 72 76 78 79 78 80 82 81 80 81 82 84 86 87 85 86 91 91 86 84 85 84 83 82 80 78 77 77 77 77 76 75 76 79 82 81 80 76 72 68 65 62 59 56 55 54 53 51 51 50 48 45 42 38 35 33 32 31 29 27 24 19 13 9 9 10 11 11 10 8 7 8 8 7 7 7 8 7
55 57 60 64 66 69 72 74 77 80 81 81 80 80 82 83 82 83 85 87 89 90 87 85 90 92 88 87 88 86 86 85 83 81 79 78 78 78 78 79 80 83 83 80 77 72 68 65 62 59 57 55 54 53 50 48 47 46 43 40 37 34 32 30 28 27 26 22 17 11 7 8 9 10 9 9 8 6 6 7 7 7 7 7 7 7
56 56 59 62 66 69 73 75 77 80 81 82 82 82 84 85 84 83 86 89 90 92 90 86 89 93 91 90 91 90 88 87 85 83 82 81 79 79 79 81 83 83 81 77 73 69 66 63 60 58 57 56 54 51 48 47 45 42 39 35 32 31 29 27 24 23 20 15 9 6 6 8 9 9 8 8 6 5 5 5 6 7 7 7 8 7
56 56 57 60 64 67 71 73 75 78 80 83 84 85 86 87 85 85 87 89 88 90 92 89 89 93 94 93 93 92 91 89 86 84 84 83 81 80 81 83 83 81 77 73 70 67 64 61 59 57 56 54 52 48 46 45 43 40 36 32 29 27 25 23 21 18 13 8 6 6 8 9 8 8 7 6 6 5 4 4 5 6 6 7 8 8
57 58 58 60 63 66 70 72 75 77 80 83 85 87 88 88 87 88 89 90 87 87 90 92 91 93 94 94 94 93 91 89 86 84 83 82 80 81 84 85 83 78 74 71 68 65 63 61 59 57 55 52 49 46 43 40 38 35 32 29 27 24 22 20 16 12 8 7 7 8 8 9 8 8 7 6 6 5 5 4 4 5 6 6 7 7
58 59 59 60 62 65 68 71 74 77 80 82 85 88 89 88 88 90 91 90 88 87 89 92 94 93 94 95 94 93 90 86 85 85 85 83 82 84 87 86 81 76 72 69 67 64 63 61 59 57 53 49 45 42 38 35 33 30 28 25 23 21 19 15 12 9 8 8 8 9 9 9 9 7 7 7 6 6 6 5 4 4 5 5 6 7
59 60 61 61 62 64 67 71 74 77 80 83 86 88 89 90 90 91 91 90 90 90 91 93 95 96 96 96 95 92 89 86 85 87 87 85 85 87 88 85 79 74 71 68 66 64 62 60 58 54 50 46 42 38 36 33 30 28 25 23 20 18 15 13 11 10 9 9 9 10 10 10 9 8 7 7 7 6 6 5 4 4 4 4 5 6
60 61 62 63 63 64 67 70 74 77 80 83 86 88 90 92 92 89 89 89 91 93 94 95 97 99 99 98 96 93 91 88 87 88 89 87 87 88 89 84 78 74 71 68 66 64 62 59 56 52 48 44 40 37 34 32 29 26 23 20 17 15 14 13 12 11 10 10 10 10 10 10 10 8 8 8 7 6 5 5 3 2 2 3 4 5
60 62 63 63 64 65 67 70 74 77 80 83 86 88 92 94 93 89 88 90 91 92 94 96 98 100 99 99 99 98 94 90 88 89 88 87 88 89 88 82 76 73 71 68 66 64 61 58 54 50 46 43 40 37 34 31 28 25 21 18 16 16 15 13 13 12 11 11 11 11 11 10 10 9 8 7 7 6 5 4 2 1 1 3 4 5
60 62 63 64 65 66 68 70 73 77 81 85 88 91 93 94 94 90 88 90 91 91 92 95 96 98 99 100 101 100 97 92 89 89 88 87 88 90 88 81 75 71 70 67 65 62 59 56 53 49 46 43 40 37 33 30 27 24 21 19 18 16 15 14 14 13 13 12 12 12 12 11 10 9 8 7 7 6 4 3 2 1 2 3 4 5
60 62 64 65 66 68 69 72 75 79 84 87 89 91 92 93 94 91 88 89 91 91 93 95 96 98 101 101 101 101 99 94 90 90 89 86 86 89 87 80 73 70 68 65 62 59 56 53 51 48 46 42 38 35 31 28 26 24 22 20 18 17 16 15 15 15 15 14 14 13 13 12 11 10 8 8 7 6 4 3 2 1 2 3 4 4
60 62 64 65 66 68 71 74 78 80 83 86 89 91 92 92 93 94 92 91 92 93 95 97 98 100 101 101 101 102 100 96 92 90 88 86 85 87 86 80 73 69 66 62 59 56 53 51 49 46 44 41 37 33 30 28 26 24 22 20 19 18 18 18 18 18 18 17 16 15 13 12 11 10 9 8 7 5 4 3 2 2 2 3 4 4
60 61 64 65 67 68 70 73 75 78 81 85 87 89 92 93 93 95 95 93 93 94 96 98 100 100 102 102 102 103 103 101 96 92 90 87 85 86 85 78 71 66 63 60 57 54 51 49 47 44 42 39 35 32 30 27 26 24 22 21 20 20 20 21 21 21 20 19 18 16 14 12 11 9 8 7 6 5 5 5 3 2 3 4 4 4
59 61 63 66 67 69 71 72 75 79 82 86 88 89 91 92 93 95 94 92 93 95 96 98 100 101 103 104 103 104 106 105 101 97 94 89 85 85 84 77 68 62 59 56 54 52 49 48 45 43 40 37 34 32 30 28 26 25 23 23 22 22 22 22 22 22 21 20 19 18 17 15 12 9 7 5 4 5 6 6 4 4 5 6 6 7
59 61 63 65 67 69 71 73 77 80 83 85 88 90 91 91 93 96 95 93 94 96 97 99 101 102 103 105 104 104 106 108 105 101 97 91 86 85 84 77 67 60 56 54 51 50 48 46 45 42 39 37 34 32 30 28 27 26 25 24 23 23 23 23 22 22 22 20 19 20 20 19 16 12 8 3 3 5 7 7 7 7 8 9 11 12
59 60 62 65 67 69 70 72 75 79 82 85 88 90 91 92 94 95 97 98 98 97 98 99 101 102 103 105 106 104 104 106 106 102 97 92 86 83 83 79 69 59 54 51 49 48 47 45 44 42 39 37 35 33 31 30 28 27 26 25 24 24 23 23 22 22 21 20 20 21 22 21 18 14 10 4 3 6 9 10 10 11 12 13 15 15
58 60 62 64 66 68 70 72 74 78 81 84 87 90 92 94 95 94 96 100 101 99 98 99 100 102 103 104 106 105 103 103 103 101 97 93 88 83 82 79 71 60 54 51 48 47 46 45 43 42 40 38 36 34 33 31 30 28 27 26 25 24 24 23 22 22 21 20 20 21 22 21 18 14 10 8 8 11 12 13 14 15 16 16 16 16
59 60 62 64 66 68 70 71 73 76 79 82 86 89 91 93 96 96 96 97 98 99 99 99 100 101 102 103 105 105 104 102 102 101 98 95 90 85 82 79 73 62 53 50 48 46 45 44 43 42 40 39 37 36 34 32 31 29 28 27 26 25 24 23 22 22 21 20 20 20 20 19 16 13 11 11 12 14 16 16 17 18 18 17 16 15
59 61 63 64 66 68 69 72 74 77 80 83 85 88 90 92 95 96 96 95 96 99 99 98 99 101 102 103 105 106 105 104 103 102 100 97 93 88 83 80 75 66 55 49 47 45 44 43 42 41 40 39 38 37 35 34 33 31 29 28 27 26 25 24 23 21 20 19 19 18 18 16 14 11 11 12 13 16 18 19 19 19 18 17 16 14
59 61 64 65 67 69 70 72 75 78 80 83 86 89 91 93 93 94 95 95 96 98 99 99 99 100 102 103 105 106 106 106 104 103 102 99 95 90 84 80 77 70 59 50 46 45 44 43 43 42 41 40 38 37 36 35 34 33 31 29 27 26 25 23 22 21 20 18 17 17 15 14 12 9 10 12 14 17 19 19 19 18 18 16 15 13
58 60 63 65 66 68 70 70 72 75 77 81 85 87 89 91 92 93 94 96 96 97 99 99 99 100 102 103 104 106 107 107 106 105 103 101 98 93 87 81 77 73 65 53 47 45 44 43 44 44 43 42 41 39 38 37 36 34 33 30 28 26 24 23 21 20 19 16 15 15 14 12 10 8 9 13 16 18 18 18 18 17 16 15 14 12
58 59 62 64 65 66 68 69 71 73 76 79 82 85 88 89 91 92 94 96 97 97 97 99 100 101 101 102 104 105 107 107 107 106 105 103 100 96 90 84 78 75 69 59 49 45 44 43 44 44 44 44 43 42 41 39 38 36 34 32 28 26 23 21 20 19 17 15 14 14 12 10 8 7 10 14 17 17 17 16 16 15 14 13 11 9
57 59 61 63 65 66 67 69 71 73 76 78 81 84 87 88 90 92 94 96 97 96 96 98 100 101 101 102 103 105 106 107 107 107 106 104 102 98 93 87 81 76 72 64 53 46 44 43 43 44 45 45 45 45 44 42 40 38 34 31 28 24 22 20 18 17 16 13 12 12 10 8 6 7 11 15 16 16 16 15 14 13 12 10 9 8
57 59 60 62 64 66 67 68 70 72 75 78 80 83 86 88 90 91 94 96 97 97 96 97 99 100 101 101 103 104 105 106 107 108 107 105 104 101 96 91 85 78 74 68 58 48 43 43 44 45 46 46 46 46 44 42 40 37 33 29 25 21 19 17 15 14 13 11 10 10 8 6 5 8 13 15 15 15 14 14 13 11 10 9 8 8
57 59 60 61 63 65 66 68 69 71 73 76 79 82 85 87 89 91 93 95 96 97 98 98 98 99 101 101 102 103 105 106 107 107 107 106 105 103 99 95 88 81 76 71 63 52 44 42 44 44 45 47 47 45 41 38 36 34 31 28 26 22 18 16 14 12 11 9 8 8 7 5 5 10 13 14 14 14 13 12 11 10 9 8 8 8
58 59 60 62 63 64 66 68 69 71 73 75 77 80 83 86 88 89 91 93 95 97 99 99 98 98 100 101 102 102 104 105 106 107 107 107 106 104 102 98 92 85 78 73 68 57 46 41 42 43 45 47 47 42 38 36 35 32 30 28 26 23 20 17 14 11 9 8 7 7 6 4 6 11 14 14 14 13 13 12 10 9 9 9 9 8
58 59 61 62 63 64 66 68 69 71 73 74 76 79 81 84 86 88 89 91 93 97 99 99 98 97 98 100 101 102 102 104 105 106 106 107 106 105 104 101 95 89 81 75 71 63 50 42 40 42 44 46 44 39 38 37 34 31 30 27 25 23 21 18 15 12 9 8 7 6 5 5 7 12 14 14 13 13 12 11 10 9 9 8 8 8
Wind_Direction
356 355 354 353 351 351 350 348 347 345 344 342 340 341 342 340 340 340 336 332 331 331 331 327 323 327 326 319 313 308 307 305 304 304 302 300 297 296 296 296 297 297 298 298 298 297 297 296 294 292 289 286 284 283 282 281 279 277 275 273 272 272 272 272 271 272 273 273 273 273 272 271 270 270 270 271 272 273 273 273 272 272 272 272 271 270
358 357 356 355 354 354 352 350 350 348 347 345 342 342 343 341 339 341 338 335 333 332 332 328 325 330 328 323 319 314 310 309 307 307 304 301 300 300 300 300 300 300 300 300 300 300 300 299 297 294 290 287 285 284 283 282 281 279 277 275 273 272 272 273 274 274 275 275 276 275 273 271 269 268 270 272 274 274 274 274 273 272 272 271 270 269
1 359 358 357 356 355 352 351 350 349 349 346 343 342 343 341 338 340 339 336 335 333 333 329 327 331 330 326 323 317 314 313 311 308 305 304 304 303 303 303 303 302 302 302 302 302 300 299 297 295 293 291 290 290 290 288 287 285 284 280 278 276 275 275 275 274 275 275 276 276 275 273 272 273 276 278 278 278 278 278 278 277 276 274 272 271
3 0 359 358 355 354 352 350 348 348 349 346 343 342 342 342 340 340 340 338 336 334 333 331 329 331 332 328 324 319 318 315 311 308 306 306 306 305 306 305 304 304 303 303 302 302 300 299 298 296 295 294 294 294 294 293 292 291 289 285 282 278 275 274 275 277 278 278 278 277 277 278 278 280 282 282 282 281 282 282 282 281 280 278 276 274
2 360 359 357 355 353 351 349 348 347 348 346 344 343 343 343 341 341 340 339 337 335 335 333 329 332 334 328 325 322 319 315 312 310 309 309 308 308 308 307 306 305 304 304 303 302 299 298 296 295 294 295 295 295 295 295 293 290 287 284 280 275 274 277 280 282 282 281 281 281 281 282 283 284 284 283 283 282 282 283 283 282 280 278 277 275
2 360 359 357 355 353 350 349 348 346 346 345 344 343 343 343 342 342 341 340 339 338 340 335 328 333 337 330 326 325 321 316 314 313 312 311 311 310 308 307 306 305 305 305 304 301 297 295 295 295 295 296 296 294 293 292 290 288 287 283 279 276 278 282 284 284 284 284 284 284 284 284 285 285 284 283 283 283 284 285 284 283 280 278 276 274
2 1 359 357 356 354 351 350 349 346 345 345 344 344 344 344 343 343 343 341 340 341 343 338 329 332 337 333 328 325 320 318 316 315 313 312 311 309 308 307 307 307 307 306 304 301 298 297 298 298 298 297 295 293 292 292 291 289 288 285 282 281 283 285 286 285 285 284 283 283 284 284 284 283 283 283 283 285 286 287 286 284 281 279 277 276
3 2 0 358 356 355 352 350 349 347 345 345 345 345 345 345 345 345 345 343 341 343 344 339 331 331 335 334 329 325 321 320 318 316 314 313 311 310 309 309 309 309 309 307 305 304 302 301 299 299 297 295 293 293 292 291 290 289 287 286 285 285 286 287 286 284 283 282 282 282 282 282 282 283 283 284 285 287 287 287 286 285 283 281 280 278
3 3 1 358 357 355 353 351 350 348 346 346 345 346 347 347 346 346 346 344 342 344 344 339 334 331 334 335 329 325 324 321 320 318 315 314 313 313 312 312 313 311 309 308 306 302 301 301 299 297 296 294 293 292 291 291 290 289 288 288 287 287 286 285 283 282 281 281 281 282 282 283 284 285 286 287 287 288 287 287 286 285 283 282 280 278
3 2 0 358 357 356 354 352 351 349 347 347 346 347 348 347 347 347 346 344 343 346 344 340 335 330 333 337 330 327 326 323 321 318 316 316 315 315 315 314 314 311 307 305 302 298 299 300 298 297 296 294 294 293 292 291 290 289 288 287 287 286 284 283 283 282 282 283 283 284 285 285 286 287 287 287 287 287 287 286 285 284 282 280 278 277
1 0 359 357 356 355 355 353 352 350 348 348 347 347 348 348 348 348 347 344 345 348 346 341 337 331 332 336 332 329 327 324 321 319 318 318 317 317 317 315 311 308 305 301 299 297 298 299 298 297 296 294 293 292 291 290 289 288 288 287 286 285 285 284 284 284 285 285 286 286 287 287 287 287 287 288 288 288 287 286 285 283 281 279 277 275
357 358 356 356 355 354 355 355 354 352 350 349 348 347 348 348 349 350 349 346 346 351 350 343 339 334 332 334 333 330 328 324 322 321 320 320 320 319 317 312 307 305 304 302 300 298 297 298 298 296 293 292 291 291 290 290 289 289 289 288 288 287 287 286 286 287 287 287 288 288 289 289 289 289 290 290 290 289 288 287 285 282 280 278 276 274
355 355 354 353 355 354 355 355 355 354 352 351 350 349 349 349 350 352 351 349 348 352 352 345 339 337 335 334 334 331 328 325 324 324 323 322 321 319 314 309 305 303 302 300 299 298 297 297 295 293 291 291 290 290 290 290 290 290 290 290 290 290 290 290 290 290 290 290 290 290 290 291 291 292 292 292 291 290 289 287 284 282 279 277 275 272
353 353 353 353 355 356 356 356 356 355 354 353 352 351 351 350 349 351 351 348 347 352 354 347 340 339 338 336 335 331 328 327 327 326 326 325 322 317 312 308 305 303 302 301 299 298 297 295 293 292 291 291 291 291 291 291 292 293 293 294 294 293 293 293 293 293 293 292 292 292 292 293 293 293 293 292 291 290 289 286 284 282 280 277 274 271
354 354 355 356 356 358 358 358 357 357 356 355 354 353 352 351 349 349 350 346 344 349 354 349 342 340 339 338 335 331 330 330 329 328 327 325 319 315 312 309 306 304 302 300 298 296 295 294 294 294 294 294 294 294 295 296 297 298 298 297 296 295 294 294 294 293 293 293 293 294 294 294 294 293 292 291 290 289 288 286 284 282 280 276 273 269
359 357 357 358 358 359 0 359 358 358 357 356 356 355 353 352 350 350 351 347 343 347 352 350 345 342 340 338 335 332 332 332 330 330 328 323 318 315 312 309 306 303 301 299 298 297 297 297 298 298 298 299 299 300 300 301 301 300 299 297 296 295 295 294 294 293 293 294 294 294 294 293 293 292 291 290 289 289 288 286 284 281 277 273 269 264
1 360 359 358 358 359 0 1 359 358 358 357 356 356 354 352 350 349 351 350 345 346 351 350 345 344 341 338 336 334 334 333 331 330 327 321 317 314 310 307 305 303 303 302 302 302 302 302 303 304 304 304 304 303 303 302 301 299 298 297 296 295 295 295 295 294 295 294 294 293 293 292 292 291 291 290 290 289 287 286 282 278 271 265 259 254
1 1 359 357 358 359 1 2 0 359 358 357 356 356 355 354 352 350 349 349 346 345 350 351 346 344 343 339 337 336 335 333 331 328 324 319 315 312 309 308 308 307 307 306 306 307 307 307 307 306 306 306 305 304 303 302 301 300 299 299 298 297 297 296 295 295 295 294 293 293 292 292 292 291 291 291 291 288 285 281 277 269 261 256 253 252
358 360 359 358 358 360 2 2 2 0 358 357 357 356 356 354 353 353 350 347 345 342 346 351 349 346 344 339 337 337 335 332 330 327 323 319 316 315 314 313 312 311 311 311 311 311 310 309 309 308 307 306 306 305 305 305 304 303 302 301 300 299 298 297 296 296 295 294 294 293 293 292 292 292 292 292 289 285 279 273 268 263 260 259 259 256
356 358 360 359 359 360 1 2 2 1 359 358 357 357 357 356 354 354 352 348 345 342 342 346 350 349 344 340 339 337 334 332 329 326 324 321 320 319 318 317 316 316 316 316 315 313 312 311 310 310 309 309 309 309 309 308 307 306 304 302 301 301 300 298 298 297 296 295 294 294 293 293 294 294 293 290 283 276 271 268 266 266 265 264 262 258
355 356 358 360 360 360 1 3 2 2 0 359 358 358 358 357 355 355 355 352 349 345 341 342 348 350 345 342 341 337 334 332 329 327 325 324 323 321 320 319 319 319 319 317 315 314 313 312 311 311 311 312 311 311 310 309 308 306 305 304 304 303 302 300 299 298 297 297 296 295 295 295 296 295 290 283 275 270 269 271 272 271 268 265 262 259
354 354 356 359 0 1 2 3 3 2 1 0 359 358 358 357 356 355 355 355 353 350 344 341 346 349 346 343 340 336 335 334 331 329 327 325 323 322 321 321 321 321 320 318 316 315 314 314 314 314 314 314 313 312 312 310 309 309 308 308 308 306 305 303 302 301 300 299 298 297 297 299 297 291 281 275 274 275 276 277 275 272 267 262 258 255
354 353 354 358 1 2 2 3 3 3 2 1 360 359 359 359 357 355 353 353 353 352 349 345 347 349 347 343 340 338 337 335 332 330 327 326 325 324 324 325 325 324 322 320 319 318 318 318 318 318 317 316 316 316 315 314 313 314 314 313 311 309 308 306 305 304 302 301 300 301 301 300 294 282 275 277 280 282 283 281 276 271 263 255 251 250
355 353 353 356 358 360 1 1 2 3 2 2 1 0 1 0 359 357 354 352 353 353 351 348 348 350 348 343 340 339 338 336 334 332 330 328 328 328 328 329 328 327 325 324 323 322 322 322 321 321 320 320 319 318 318 318 318 318 317 316 314 312 311 309 308 306 304 304 305 306 304 297 286 280 282 285 287 287 286 281 275 267 255 249 251 254
357 356 354 354 356 357 359 0 2 3 3 3 2 1 1 1 0 358 357 355 355 355 353 348 347 350 349 344 342 341 340 339 337 336 334 332 331 331 332 333 331 329 328 327 326 326 325 325 325 324 324 323 321 321 322 322 321 320 320 319 317 316 314 312 310 309 308 308 309 308 303 292 287 290 292 294 294 295 292 281 270 259 249 249 255 259
358 359 357 357 359 360 1 2 2 3 4 3 3 2 1 1 0 359 358 358 357 356 355 350 346 349 349 346 345 345 343 343 342 340 338 336 335 335 336 335 333 331 330 330 329 329 329 328 328 327 326 325 324 325 326 325 323 323 323 321 320 318 317 315 313 311 312 314 314 311 303 298 298 301 304 304 304 303 297 281 267 257 250 247 251 255
358 0 0 360 1 2 2 2 2 2 3 3 2 2 2 1 1 360 359 359 357 356 357 354 348 349 350 348 348 347 346 346 345 342 340 339 339 339 338 337 335 334 333 333 333 333 332 331 330 329 327 327 328 329 329 327 326 326 325 324 322 320 318 318 318 317 318 321 325 323 313 308 309 314 317 313 310 309 300 284 270 260 250 243 243 245
357 360 2 1 1 2 2 2 2 2 2 2 2 3 3 2 1 0 359 359 358 356 356 356 352 350 351 350 349 349 349 348 347 343 342 342 342 342 341 339 338 338 337 337 338 338 336 334 333 331 331 332 333 333 331 328 328 328 328 327 326 324 323 324 325 326 331 341 346 336 324 319 323 329 328 321 318 317 309 298 284 268 254 243 239 239
358 359 1 2 1 1 2 2 2 2 2 2 2 2 3 4 2 0 359 359 359 356 354 355 354 352 351 351 351 351 350 349 347 344 344 344 345 344 344 343 342 342 342 342 342 342 340 338 337 337 338 338 337 336 333 331 330 330 330 330 331 332 331 333 337 347 3 6 352 340 331 329 336 341 337 329 327 329 328 321 300 277 261 247 239 237
358 359 360 1 1 1 1 1 2 2 2 2 2 2 3 4 3 1 0 0 360 358 356 355 355 354 353 352 353 353 352 350 347 346 347 348 348 347 347 346 346 346 346 346 346 345 344 343 343 343 343 343 342 340 338 336 336 336 337 338 339 341 342 349 4 19 20 6 352 344 337 337 347 351 341 333 333 334 333 328 312 288 269 252 242 237
358 358 359 0 0 0 1 1 2 2 2 2 3 3 3 4 4 2 1 1 1 0 359 357 356 355 355 355 354 354 353 352 349 349 350 351 350 349 349 349 349 349 349 350 349 349 349 349 348 348 348 348 347 346 344 344 345 346 348 349 349 353 3 18 29 25 14 3 353 346 341 342 349 351 340 332 331 330 328 325 319 302 275 259 248 238
358 358 358 359 360 0 1 2 2 3 3 2 3 3 2 3 5 4 2 1 1 1 0 359 358 357 356 356 355 355 356 355 352 351 352 352 352 351 351 351 351 351 352 353 353 353 354 354 354 353 353 352 352 351 351 353 355 357 360 2 6 17 30 33 28 19 12 3 354 349 347 347 348 345 338 329 324 322 319 317 317 310 284 256 240 234
357 357 357 358 359 360 1 2 2 2 2 2 3 3 3 4 6 6 3 2 2 1 0 360 359 358 357 356 356 357 358 357 354 352 352 353 353 353 352 353 353 353 354 355 356 356 356 357 357 357 357 357 357 358 359 1 5 10 17 24 32 37 35 29 22 16 11 3 357 352 350 349 345 339 332 323 315 311 313 314 314 309 258 228 224 223
357 357 357 357 358 359 1 2 2 2 3 4 3 4 5 5 6 6 4 3 3 2 1 1 0 359 359 358 358 359 0 360 356 354 354 354 354 353 353 354 355 356 356 358 358 359 359 359 0 0 1 2 3 4 7 11 16 25 35 41 41 37 30 25 19 13 9 4 359 353 349 344 339 332 324 315 305 302 304 309 304 251 204 210 212 211
356 356 356 357 357 359 360 1 3 4 4 5 4 4 5 5 6 6 5 3 3 3 2 2 1 1 1 0 359 360 1 2 359 357 356 356 355 355 355 356 357 358 359 360 1 2 3 3 4 5 6 8 11 14 18 23 29 36 40 39 35 31 26 21 15 11 8 5 0 354 346 337 329 322 313 301 295 292 291 286 264 221 195 191 189 187
356 356 356 356 357 359 360 1 4 4 4 4 4 4 4 4 4 5 6 5 4 3 3 3 2 2 1 1 1 0 2 3 2 0 359 357 357 357 356 357 358 359 360 1 3 5 6 7 9 10 12 16 19 23 26 30 33 34 33 30 27 24 20 16 12 9 6 5 1 355 347 338 327 317 305 291 281 274 262 247 233 209 168 154 154 157
355 356 356 356 357 358 1 2 3 4 3 4 5 5 5 5 4 5 6 5 4 3 3 3 3 2 1 2 2 1 2 4 4 3 2 1 360 359 358 358 358 359 0 2 5 7 8 9 11 13 16 19 22 25 26 27 27 25 24 22 19 16 14 11 8 6 5 6 4 0 356 349 337 322 305 286 268 246 225 216 204 161 129 128 133 136
355 356 356 356 356 358 359 1 2 4 4 4 4 5 6 7 6 5 5 5 4 4 4 3 3 3 2 1 2 2 2 4 5 4 4 3 2 1 360 359 359 360 1 3 5 7 9 10 11 14 16 18 19 21 21 21 20 18 17 15 13 10 9 8 5 5 7 7 6 5 5 3 358 348 325 291 248 216 202 189 163 132 120 118 118 120
354 355 356 356 356 357 359 360 1 3 4 4 4 5 6 6 7 7 6 6 5 5 5 4 4 3 2 2 2 2 2 3 5 5 5 4 2 1 0 359 359 0 1 2 4 6 8 9 10 12 13 15 15 16 16 15 15 13 12 11 8 6 6 5 5 6 7 7 7 9 12 12 11 8 360 331 207 187 175 158 137 121 115 116 119 122
354 355 356 356 356 357 358 0 1 2 3 4 4 5 5 6 6 6 6 6 6 6 6 5 4 4 3 3 3 3 2 3 5 5 5 4 3 1 360 360 359 360 1 2 3 4 6 7 8 9 10 11 11 11 12 12 12 11 9 8 6 4 3 2 5 7 7 7 9 12 16 16 16 17 20 37 129 145 142 134 123 116 118 122 125 126
353 355 356 356 357 357 358 360 1 2 2 3 4 4 5 6 6 7 6 6 6 7 6 5 5 5 5 3 3 4 4 4 5 5 5 4 3 1 0 360 359 358 359 1 2 2 3 4 5 6 6 7 7 8 8 9 9 9 7 6 4 3 1 1 5 7 6 7 11 15 18 19 20 27 41 67 103 119 123 122 118 120 124 127 127 126
353 354 356 356 357 357 358 359 0 2 3 3 4 4 5 5 6 7 8 7 6 6 6 6 5 5 5 5 4 5 5 5 5 6 5 5 4 2 1 1 360 358 357 358 359 0 0 1 2 3 3 3 3 3 3 3 5 6 5 4 3 2 2 1 2 4 5 8 11 15 19 21 25 39 62 85 104 113 116 118 121 126 130 130 127 122
353 354 355 356 357 357 358 358 359 0 2 3 4 4 5 5 6 7 8 8 7 6 6 6 6 6 6 6 5 5 5 5 6 6 6 6 5 3 2 1 1 359 356 355 356 357 358 359 360 0 1 0 360 359 359 359 359 0 2 2 1 360 0 0 359 0 3 7 10 14 20 24 30 48 75 93 105 113 117 122 127 130 131 128 123 117
353 354 354 355 356 357 358 358 358 359 0 2 3 4 4 5 6 7 7 8 7 7 7 7 6 6 6 6 6 6 6 6 6 6 6 6 6 5 3 2 1 360 356 353 353 355 356 357 358 358 359 359 358 357 356 355 355 355 356 358 359 357 357 357 356 357 360 4 8 13 19 25 32 52 82 98 108 116 122 127 130 130 127 123 118 114
353 354 354 355 356 357 357 357 357 358 360 2 3 4 4 5 6 6 7 8 7 7 7 7 7 7 6 7 6 6 6 6 6 6 6 6 6 6 5 3 1 0 358 354 351 352 353 354 355 356 357 357 357 356 355 353 352 350 350 353 356 356 354 352 353 353 355 360 6 11 18 26 36 57 93 110 117 123 127 128 127 125 121 118 114 110
353 355 354 355 356 357 357 356 356 358 360 1 3 3 4 4 5 6 7 8 8 7 7 7 7 7 7 7 7 6 6 6 6 6 6 6 7 7 6 4 2 1 360 356 351 349 350 351 352 353 354 354 354 353 352 351 349 348 347 347 350 353 351 348 348 350 351 355 2 9 17 28 44 75 111 122 125 126 127 126 122 119 115 111 106 101
353 354 355 355 356 356 356 356 356 357 359 1 2 3 3 4 5 6 7 8 8 8 8 7 7 7 7 7 7 7 7 6 6 6 6 6 7 7 7 5 4 2 1 358 353 349 348 349 350 351 352 352 351 350 349 348 348 348 347 346 347 349 348 344 343 345 347 350 358 7 16 32 61 104 127 130 129 128 127 124 119 114 107 102 95 88
353 354 355 355 355 356 356 356 356 357 358 0 2 2 2 3 4 5 7 7 8 8 8 7 7 7 7 7 7 7 7 7 7 6 6 6 6 7 7 6 5 3 2 0 356 350 347 347 348 350 351 350 348 347 347 347 347 349 349 349 349 348 344 338 336 339 343 347 355 7 18 38 83 126 138 136 132 131 127 122 116 109 102 96 90 80
353 353 355 355 355 355 356 356 356 357 358 360 1 2 2 3 4 5 6 7 8 8 8 7 7 7 7 7 7 7 7 7 7 7 7 6 6 7 7 7 6 5 3 2 359 354 348 346 347 348 349 349 347 348 351 352 352 352 353 353 353 351 345 339 336 337 342 347 356 9 22 46 107 139 145 142 136 132 127 120 113 106 99 92 86 76
352 353 354 355 355 355 355 356 356 357 358 359 1 1 2 2 3 4 6 7 8 7 7 7 7 7 7 7 7 7 7 7 7 7 7 7 6 7 7 7 7 6 4 3 2 357 351 347 347 348 349 349 350 353 358 358 357 358 359 358 359 359 357 354 350 347 349 355 3 14 29 61 125 147 151 146 139 134 129 124 115 105 96 87 80 74
352 353 354 355 355 355 355 355 356 356 357 358 360 1 1 1 2 4 5 6 7 7 7 7 8 7 7 7 7 7 7 7 7 7 7 7 7 7 7 7 7 7 6 5 3 1 356 350 348 350 351 352 354 358 1 2 2 3 3 3 5 7 8 7 5 3 6 11 15 23 43 86 133 152 155 150 144 139 133 128 119 107 99 92 81 71